Weather History for Sanandaj, Iran

Change the Weather History Date:

Sunday, February 17, 2013

  Actual Average Record
Temperature  
Mean Temperature 40 °F -  
Max Temperature 53 °F - - ()
Min Temperature 28 °F - - ()
Degree Days  
Heating Degree Days 24    
Moisture  
Dew Point 24 °F    
Average Humidity 44    
Maximum Humidity 80    
Minimum Humidity 21    
Precipitation  
Precipitation 0.00 in - - ()
Sea Level Pressure  
Sea Level Pressure 29.94 in    
Wind  
Wind Speed 5 mph ()    
Max Wind Speed 16 mph    
Max Gust Speed -    
Visibility 6.5 miles    
Events      
T = Trace of Precipitation, MM = Missing Value Source: Averaged Metar Reports

Daily Weather History Graph

Daily Weather History Graph

Search for Another Location

Airport:

Trip Planner

Search our weather history database for the weather conditions in past years. The results will help you decide how hot, cold, wet, or windy it might be!

Date:

Astronomy

Feb. 17, 2013 Rise Set
Actual Time 7:06 AM IRST 6:06 PM IRST
Civil Twilight 6:40 AM IRST 6:32 PM IRST
Nautical Twilight 6:10 AM IRST 7:01 PM IRST
Astronomical Twilight 5:41 AM IRST 7:31 PM IRST
Moon 11:00 AM IRST (2/17) No Moon Set
Length of Visible Light 11h 51m
Length of Day
11h 00m
Waxing Crescent, 45% of the Moon is Illuminated
Feb 17
Waxing Crescent
Feb 18
First Quarter
Feb 25
Full
Mar 5
Last Quarter
Mar 11
New

Hourly Weather History & Observations

Time (IRST) Temp. Windchill Dew Point Humidity Pressure Visibility Wind Dir Wind Speed Gust Speed Precip Events Conditions
3:30 AM 36 °F - 25 °F 54% 29.91 in 6 mi NNE 2.2 mph - -   Partly Cloudy
7:30 AM 28.4 °F - 23.0 °F 80% 29.98 in 6.2 mi ESE 2.3 mph - N/A   Partly Cloudy
8:30 AM 33.8 °F - 26.6 °F 75% 29.98 in 6.2 mi South 2.3 mph - N/A   Partly Cloudy
9:00 AM 37.4 °F - 28.4 °F 70% 29.98 in 6.2 mi South 2.3 mph - N/A   Partly Cloudy
9:30 AM 40 °F - 27 °F 48% 30.01 in 9 mi South 4.5 mph - -   Scattered Clouds
9:30 AM 41.0 °F 38.0 °F 26.6 °F 57% 30.01 in 6.2 mi South 4.6 mph - N/A   Partly Cloudy
10:00 AM 44.6 °F 40.7 °F 26.6 °F 49% 30.01 in 6.2 mi South 6.9 mph - N/A   Partly Cloudy
10:30 AM 46.4 °F 42.9 °F 26.6 °F 46% 29.98 in 6.2 mi South 6.9 mph - N/A   Scattered Clouds
11:00 AM 48.2 °F - 24.8 °F 40% 29.98 in 6.2 mi SSE 6.9 mph - N/A   Scattered Clouds
11:30 AM 48.2 °F - 24.8 °F 40% 29.98 in 6.2 mi South 6.9 mph - N/A   Partly Cloudy
12:00 PM 48.2 °F - 24.8 °F 40% 29.95 in 6.2 mi SSW 4.6 mph - N/A   Partly Cloudy
12:30 PM 50.0 °F - 26.6 °F 40% 29.95 in 6.2 mi South 9.2 mph - N/A   Partly Cloudy
1:30 PM 50.0 °F - 24.8 °F 37% 29.92 in 6.2 mi South 13.8 mph - N/A   Scattered Clouds
2:00 PM 51.8 °F - 23.0 °F 33% 29.92 in 6.2 mi SSW 16.1 mph - N/A   Scattered Clouds
2:30 PM 53.6 °F - 23.0 °F 30% 29.89 in 6.2 mi SSW 9.2 mph - N/A   Scattered Clouds
3:00 PM 53.6 °F - 23.0 °F 30% 29.89 in 6.2 mi West 6.9 mph - N/A   Scattered Clouds
3:30 PM 53 °F - 25 °F 21% 29.88 in 9 mi SSW 8.9 mph - -   Partly Cloudy
3:30 PM 53.6 °F - 24.8 °F 33% 29.89 in 6.2 mi SSW 9.2 mph - N/A   Scattered Clouds
4:00 PM 51.8 °F - 23.0 °F 33% 29.89 in 6.2 mi South 9.2 mph - N/A   Scattered Clouds
4:30 PM 51.8 °F - 23.0 °F 33% 29.89 in 6.2 mi SW 4.6 mph - N/A   Scattered Clouds
5:30 PM 48.2 °F - 23.0 °F 37% 29.89 in 6.2 mi West 9.2 mph - N/A   Partly Cloudy
6:30 PM 46.4 °F 42.9 °F 23.0 °F 40% 29.89 in 6.2 mi West 6.9 mph - N/A   Partly Cloudy
7:30 PM 44.6 °F 39.7 °F 21.2 °F 39% 29.92 in 6.2 mi WNW 9.2 mph - N/A   Partly Cloudy
8:30 PM 42.8 °F - 21.2 °F 42% 29.92 in 6.2 mi Calm Calm - N/A   Partly Cloudy
9:30 PM 41 °F - 21 °F 32% 29.95 in 9 mi SE 4.5 mph - -   Scattered Clouds
9:30 PM 41.0 °F 38.0 °F 21.2 °F 45% 29.92 in 6.2 mi SE 4.6 mph - N/A   Partly Cloudy
10:30 PM 39.2 °F - 21.2 °F 49% 29.95 in 6.2 mi SE 2.3 mph - N/A   Partly Cloudy
11:30 PM 37.4 °F 33.8 °F 23.0 °F 56% 29.95 in 6.2 mi SSE 4.6 mph - N/A   Scattered Clouds